DLH2016 KMCO-GOBD

Flight info

Callsign DLH2016
Flight time 7h 20m
Altitude 37000
Route MZULO3 LENDS M203 SNAGY 2960N 2957N 2950N 2945N 2842N 2740N 2434N ULTEM UR976 LUMPO R976 LIGOV
Aircraft A388/J-SADE2E3FGHIJ3J4J5M1RWXY/LB1D1

Departure

Time 2026-04-25 12:59
Airport Orlando International Airport (KMCO)

Arrival

Time 2026-04-25 20:20
Airport Blaise Diagne International Airport (GOBD)
Time Latitude Longitude Altitude Speed Heading
2026-04-25 11:51 28.43701 -81.30132 99 ft 0 kts 123°
2026-04-25 12:07 28.43705 -81.30139 100 ft 1 kts 123°
2026-04-25 12:08 28.43708 -81.30145 100 ft 1 kts 123°
2026-04-25 12:08 28.43712 -81.30151 102 ft 1 kts 123°
2026-04-25 12:08 28.43716 -81.30158 101 ft 1 kts 123°
2026-04-25 12:08 28.43719 -81.30164 100 ft 1 kts 123°
2026-04-25 12:09 28.43723 -81.30170 102 ft 1 kts 123°
2026-04-25 12:09 28.43727 -81.30176 98 ft 1 kts 123°
2026-04-25 12:09 28.43730 -81.30183 98 ft 1 kts 123°
2026-04-25 12:09 28.43734 -81.30189 97 ft 1 kts 123°
2026-04-25 12:10 28.43737 -81.30195 97 ft 1 kts 123°
2026-04-25 12:10 28.43741 -81.30201 98 ft 1 kts 123°
2026-04-25 12:10 28.43743 -81.30205 98 ft 0 kts 123°
2026-04-25 12:13 28.43740 -81.30200 98 ft 3 kts 123°
2026-04-25 12:13 28.43730 -81.30176 98 ft 4 kts 95°
2026-04-25 12:13 28.43731 -81.30132 100 ft 5 kts 71°
2026-04-25 12:14 28.43742 -81.30110 101 ft 2 kts 59°
2026-04-25 12:14 28.43759 -81.30079 102 ft 7 kts 58°
2026-04-25 12:14 28.43789 -81.30023 101 ft 10 kts 58°
2026-04-25 12:14 28.43835 -81.29979 101 ft 7 kts 359°
2026-04-25 12:15 28.43869 -81.29987 103 ft 4 kts 326°
2026-04-25 12:15 28.43879 -81.30001 105 ft 3 kts 298°
2026-04-25 12:15 28.43889 -81.30029 105 ft 5 kts 286°
2026-04-25 12:15 28.43900 -81.30074 106 ft 7 kts 282°
2026-04-25 12:16 28.43909 -81.30138 108 ft 9 kts 276°
2026-04-25 12:16 28.43909 -81.30212 108 ft 8 kts 246°
2026-04-25 12:16 28.43868 -81.30255 108 ft 9 kts 200°
2026-04-25 12:16 28.43788 -81.30260 101 ft 10 kts 129°
2026-04-25 12:17 28.43791 -81.30193 100 ft 9 kts 40°
2026-04-25 12:17 28.43802 -81.30182 101 ft 3 kts 33°
2026-04-25 12:17 28.43815 -81.30175 102 ft 0 kts 20°
2026-04-25 12:19 28.43816 -81.30175 102 ft 1 kts 20°
2026-04-25 12:19 28.43835 -81.30167 101 ft 4 kts 20°
2026-04-25 12:20 28.43855 -81.30156 102 ft 2 kts 34°
2026-04-25 12:20 28.43859 -81.30154 102 ft 0 kts 34°
2026-04-25 12:20 28.43859 -81.30153 102 ft 0 kts 34°
2026-04-25 12:20 28.43863 -81.30150 102 ft 1 kts 34°
2026-04-25 12:21 28.43873 -81.30142 103 ft 2 kts 37°
2026-04-25 12:21 28.43885 -81.30130 106 ft 2 kts 61°
2026-04-25 12:21 28.43894 -81.30093 106 ft 8 kts 83°
2026-04-25 12:21 28.43896 -81.30065 106 ft 0 kts 89°
2026-04-25 12:51 28.43896 -81.30062 105 ft 3 kts 89°
2026-04-25 12:51 28.43892 -81.30008 104 ft 9 kts 114°
2026-04-25 12:51 28.43837 -81.29921 102 ft 18 kts 129°
2026-04-25 12:51 28.43770 -81.29846 102 ft 12 kts 147°
2026-04-25 12:52 28.43677 -81.29817 102 ft 11 kts 173°
2026-04-25 12:52 28.43590 -81.29796 102 ft 1 kts 142°
2026-04-25 12:54 28.43569 -81.29772 101 ft 7 kts 121°
2026-04-25 12:54 28.43557 -81.29735 101 ft 0 kts 100°
2026-04-25 12:56 28.43555 -81.29724 102 ft 5 kts 100°
2026-04-25 12:57 28.43548 -81.29661 103 ft 11 kts 101°
2026-04-25 12:57 28.43501 -81.29593 104 ft 10 kts 169°
2026-04-25 12:57 28.43485 -81.29591 103 ft 0 kts 175°
2026-04-25 12:58 28.43432 -81.29586 104 ft 33 kts 176°
2026-04-25 12:59 28.40874 -81.30336 523 ft 175 kts 190°
2026-04-25 12:59 28.39642 -81.30604 951 ft 185 kts 191°
2026-04-25 12:59 28.38346 -81.30802 1353 ft 191 kts 175°
2026-04-25 13:00 28.37478 -81.30528 1640 ft 195 kts 158°
2026-04-25 13:00 28.36672 -81.30005 1791 ft 212 kts 147°
2026-04-25 13:00 28.34761 -81.27906 2384 ft 250 kts 128°
2026-04-25 13:00 28.33794 -81.26191 2759 ft 263 kts 118°
2026-04-25 13:01 28.32998 -81.24311 3100 ft 265 kts 115°
2026-04-25 13:01 28.32222 -81.22446 3418 ft 266 kts 117°
2026-04-25 13:01 28.31026 -81.20816 3803 ft 268 kts 145°
2026-04-25 13:01 28.29393 -81.19833 4202 ft 271 kts 149°
2026-04-25 13:02 28.28046 -81.18346 4824 ft 273 kts 120°
2026-04-25 13:02 28.27460 -81.16314 5628 ft 274 kts 93°
2026-04-25 13:02 28.27744 -81.14192 6373 ft 275 kts 66°
2026-04-25 13:02 28.28821 -81.12407 7071 ft 277 kts 45°
2026-04-25 13:03 28.30219 -81.10879 7732 ft 282 kts 43°
2026-04-25 13:03 28.31589 -81.09268 8409 ft 286 kts 47°
2026-04-25 13:03 28.32839 -81.07537 9107 ft 290 kts 51°
2026-04-25 13:03 28.33960 -81.05793 9749 ft 294 kts 53°
2026-04-25 13:04 28.35130 -81.03858 10301 ft 303 kts 54°
2026-04-25 13:04 28.36346 -81.01801 10464 ft 323 kts 54°
2026-04-25 13:04 28.37626 -80.99624 10647 ft 341 kts 54°
2026-04-25 13:04 28.38961 -80.97349 11092 ft 348 kts 54°
2026-04-25 13:05 28.40311 -80.95051 11690 ft 352 kts 54°
2026-04-25 13:05 28.41672 -80.92738 12269 ft 355 kts 54°
2026-04-25 13:05 28.43056 -80.90386 12851 ft 358 kts 54°
2026-04-25 13:05 28.44451 -80.88016 13451 ft 362 kts 54°
2026-04-25 13:06 28.45837 -80.85661 13995 ft 365 kts 54°
2026-04-25 13:06 28.47072 -80.83180 14487 ft 371 kts 65°
2026-04-25 13:06 28.47888 -80.80352 15011 ft 376 kts 76°
2026-04-25 13:06 28.48254 -80.77398 15500 ft 380 kts 82°
2026-04-25 13:07 28.48565 -80.74399 15987 ft 384 kts 81°
2026-04-25 13:07 28.48902 -80.71375 16480 ft 387 kts 81°
2026-04-25 13:07 28.49246 -80.68326 16964 ft 391 kts 81°
2026-04-25 13:07 28.49587 -80.65297 17381 ft 394 kts 81°
2026-04-25 13:08 28.49939 -80.62139 17859 ft 398 kts 81°
2026-04-25 13:08 28.50287 -80.59003 18305 ft 402 kts 81°
2026-04-25 13:08 28.50636 -80.55843 18721 ft 404 kts 81°
2026-04-25 13:08 28.50985 -80.52665 19147 ft 406 kts 81°
2026-04-25 13:09 28.51336 -80.49465 19561 ft 409 kts 81°
2026-04-25 13:09 28.51683 -80.46299 19966 ft 411 kts 81°
2026-04-25 13:09 28.52038 -80.43055 20383 ft 414 kts 81°
2026-04-25 13:09 28.52393 -80.39796 20789 ft 416 kts 81°
2026-04-25 13:10 28.52749 -80.36527 21202 ft 418 kts 81°
2026-04-25 13:10 28.53107 -80.33231 21606 ft 421 kts 81°
2026-04-25 13:10 28.53584 -80.29956 21997 ft 421 kts 74°
2026-04-25 13:10 28.54450 -80.26779 22410 ft 421 kts 66°
2026-04-25 13:11 28.55617 -80.23726 22807 ft 422 kts 63°
2026-04-25 13:11 28.56783 -80.20696 23205 ft 424 kts 64°
2026-04-25 13:11 28.57951 -80.17614 23609 ft 426 kts 64°
2026-04-25 13:11 28.59125 -80.14501 23958 ft 428 kts 64°
2026-04-25 13:12 28.60298 -80.11394 24318 ft 429 kts 64°
2026-04-25 13:12 28.61479 -80.08267 24677 ft 430 kts 64°
2026-04-25 13:12 28.62661 -80.05139 25030 ft 432 kts 64°
2026-04-25 13:12 28.63047 -80.04118 25156 ft 432 kts 65°
2026-04-25 13:13 28.65042 -79.98833 25769 ft 435 kts 65°
2026-04-25 13:13 28.66221 -79.95706 26157 ft 437 kts 65°
2026-04-25 13:13 28.67421 -79.92523 26537 ft 438 kts 65°
2026-04-25 13:13 28.68623 -79.89329 26939 ft 440 kts 65°
2026-04-25 13:14 28.69832 -79.86115 27347 ft 442 kts 65°
2026-04-25 13:14 28.71047 -79.82883 27754 ft 445 kts 65°
2026-04-25 13:14 28.71435 -79.81852 27881 ft 445 kts 65°
2026-04-25 13:14 28.71902 -79.80608 28037 ft 446 kts 65°
2026-04-25 13:15 28.72243 -79.79698 28161 ft 447 kts 65°
2026-04-25 13:15 28.72693 -79.78499 28318 ft 447 kts 65°
2026-04-25 13:15 28.73918 -79.75233 28720 ft 450 kts 65°
2026-04-25 13:16 28.75032 -79.72262 29093 ft 452 kts 65°
2026-04-25 13:16 28.75733 -79.70388 29331 ft 453 kts 65°
2026-04-25 13:16 28.76971 -79.67080 29753 ft 455 kts 65°
2026-04-25 13:17 28.78217 -79.63749 30154 ft 458 kts 65°
2026-04-25 13:17 28.79466 -79.60405 30512 ft 460 kts 65°
2026-04-25 13:17 28.80792 -79.57070 30817 ft 462 kts 60°
2026-04-25 13:17 28.82437 -79.53926 31141 ft 464 kts 54°
2026-04-25 13:18 28.84309 -79.50979 31474 ft 466 kts 52°
2026-04-25 13:18 28.86209 -79.47979 31802 ft 468 kts 53°
2026-04-25 13:18 28.88110 -79.44949 32120 ft 471 kts 53°
2026-04-25 13:18 28.90015 -79.41906 32435 ft 474 kts 53°
2026-04-25 13:19 28.91940 -79.38832 32754 ft 477 kts 53°
2026-04-25 13:19 28.93872 -79.35748 33080 ft 479 kts 53°
2026-04-25 13:19 28.95817 -79.32642 33402 ft 482 kts 53°
2026-04-25 13:19 28.96454 -79.31626 33500 ft 483 kts 53°
2026-04-25 13:20 28.99713 -79.26418 34019 ft 487 kts 53°
2026-04-25 13:20 29.01687 -79.23261 34321 ft 489 kts 53°
2026-04-25 13:20 29.03668 -79.20089 34634 ft 491 kts 53°
2026-04-25 13:20 29.05646 -79.16921 35006 ft 491 kts 52°
2026-04-25 13:21 29.07623 -79.13751 35432 ft 489 kts 52°
2026-04-25 13:21 29.09595 -79.10586 35867 ft 487 kts 52°
2026-04-25 13:21 29.11559 -79.07432 36278 ft 486 kts 52°
2026-04-25 13:21 29.13515 -79.04289 36699 ft 485 kts 52°
2026-04-25 13:22 29.15467 -79.01150 37106 ft 484 kts 52°
2026-04-25 13:22 29.17391 -78.98054 37496 ft 482 kts 52°
2026-04-25 13:22 29.19332 -78.94926 37896 ft 481 kts 51°
2026-04-25 13:23 29.23233 -78.88642 37995 ft 484 kts 51°
2026-04-25 13:23 29.27119 -78.82364 37972 ft 484 kts 51°
2026-04-25 13:24 29.31014 -78.76067 37978 ft 484 kts 51°
2026-04-25 13:24 29.34903 -78.69767 38004 ft 484 kts 51°
2026-04-25 13:25 29.38909 -78.63629 38015 ft 483 kts 47°
2026-04-25 13:25 29.43131 -78.57595 38015 ft 486 kts 48°
2026-04-25 13:26 29.47065 -78.51266 38021 ft 492 kts 61°
2026-04-25 13:26 29.49278 -78.43783 38023 ft 497 kts 71°
2026-04-25 13:27 29.51145 -78.36198 38020 ft 498 kts 71°
2026-04-25 13:27 29.52995 -78.28539 38013 ft 499 kts 76°
2026-04-25 13:28 29.53578 -78.20583 38009 ft 501 kts 85°
2026-04-25 13:28 29.53872 -78.12575 37999 ft 501 kts 85°
2026-04-25 13:29 29.54126 -78.05932 37993 ft 501 kts 85°
2026-04-25 13:29 29.54497 -77.96674 37998 ft 500 kts 85°
2026-04-25 13:30 29.55118 -77.88718 37994 ft 496 kts 73°
2026-04-25 13:30 29.56093 -77.84942 37988 ft 494 kts 70°
2026-04-25 13:31 29.57836 -77.74588 37989 ft 499 kts 83°
2026-04-25 13:31 29.58227 -77.66613 37991 ft 500 kts 86°
2026-04-25 13:32 29.58478 -77.58622 37999 ft 501 kts 86°
2026-04-25 13:32 29.58732 -77.50618 37998 ft 501 kts 86°
2026-04-25 13:33 29.58991 -77.42616 37999 ft 502 kts 86°
2026-04-25 13:33 29.59247 -77.34588 38008 ft 502 kts 86°
2026-04-25 13:34 29.59496 -77.26630 38004 ft 502 kts 86°
2026-04-25 13:34 29.59742 -77.18612 38005 ft 502 kts 86°
2026-04-25 13:35 29.60010 -77.09679 38011 ft 502 kts 86°
2026-04-25 13:35 29.60245 -77.01664 38006 ft 502 kts 87°
2026-04-25 13:36 29.60475 -76.93709 38004 ft 502 kts 87°
2026-04-25 13:36 29.60704 -76.85696 38006 ft 501 kts 87°
2026-04-25 13:37 29.60865 -76.77683 38002 ft 501 kts 87°
2026-04-25 13:37 29.61121 -76.69700 38000 ft 501 kts 87°
2026-04-25 13:38 29.61346 -76.61754 38004 ft 500 kts 87°
2026-04-25 13:38 29.61554 -76.53758 38004 ft 500 kts 88°
2026-04-25 13:39 29.61755 -76.45781 38011 ft 500 kts 88°
2026-04-25 13:39 29.61951 -76.37811 38015 ft 500 kts 88°
2026-04-25 13:40 29.62143 -76.29810 38013 ft 499 kts 88°
2026-04-25 13:40 29.62328 -76.21867 38013 ft 499 kts 88°
2026-04-25 13:41 29.62510 -76.13891 38020 ft 499 kts 88°
2026-04-25 13:41 29.62687 -76.05935 38017 ft 498 kts 88°
2026-04-25 13:42 29.62859 -75.97968 38021 ft 498 kts 88°
2026-04-25 13:42 29.63019 -75.90458 38454 ft 490 kts 88°
2026-04-25 13:42 29.63099 -75.86526 38650 ft 494 kts 89°
2026-04-25 13:43 29.63175 -75.82559 38770 ft 498 kts 89°
2026-04-25 13:43 29.63251 -75.78592 39019 ft 498 kts 89°
2026-04-25 13:43 29.63326 -75.74609 39265 ft 498 kts 89°
2026-04-25 13:43 29.63400 -75.70619 39505 ft 499 kts 89°
2026-04-25 13:44 29.63467 -75.66625 39726 ft 500 kts 89°
2026-04-25 13:44 29.63541 -75.62636 39960 ft 500 kts 89°
2026-04-25 13:44 29.63614 -75.58683 40184 ft 501 kts 89°
2026-04-25 13:44 29.63686 -75.54688 40417 ft 501 kts 89°
2026-04-25 13:45 29.63757 -75.50682 40630 ft 502 kts 89°
2026-04-25 13:45 29.63825 -75.46667 40851 ft 503 kts 89°
2026-04-25 13:45 29.63893 -75.42636 41021 ft 504 kts 89°
2026-04-25 13:46 29.64024 -75.34573 41017 ft 500 kts 89°
2026-04-25 13:46 29.64128 -75.27937 41018 ft 501 kts 89°
2026-04-25 13:47 29.64249 -75.19925 41018 ft 501 kts 89°
2026-04-25 13:47 29.64366 -75.11914 41018 ft 501 kts 89°
2026-04-25 13:48 29.64495 -75.02610 41021 ft 501 kts 89°
2026-04-25 13:48 29.64585 -74.95906 41021 ft 501 kts 89°
2026-04-25 13:49 29.64687 -74.87892 41024 ft 501 kts 89°
2026-04-25 13:49 29.64783 -74.79945 41027 ft 501 kts 89°
2026-04-25 13:50 29.64876 -74.71945 41027 ft 500 kts 89°
2026-04-25 13:50 29.64963 -74.63942 41027 ft 500 kts 89°
2026-04-25 13:51 29.65046 -74.55951 41027 ft 500 kts 89°
2026-04-25 13:51 29.65123 -74.48016 41022 ft 500 kts 90°
2026-04-25 13:52 29.65196 -74.40031 41022 ft 500 kts 90°
2026-04-25 13:52 29.65265 -74.32040 41026 ft 500 kts 90°
2026-04-25 13:53 29.65328 -74.24045 41024 ft 500 kts 90°
2026-04-25 13:53 29.65387 -74.16061 41025 ft 500 kts 90°
2026-04-25 13:54 29.65441 -74.08114 41027 ft 500 kts 90°
2026-04-25 13:54 29.65490 -74.00113 41031 ft 501 kts 90°
2026-04-25 13:55 29.65535 -73.92105 41029 ft 501 kts 90°
2026-04-25 13:55 29.65574 -73.84101 41032 ft 501 kts 90°
2026-04-25 13:56 29.65609 -73.76129 41040 ft 502 kts 90°
2026-04-25 13:56 29.65639 -73.68107 41043 ft 502 kts 90°
2026-04-25 13:57 29.65664 -73.60085 41030 ft 502 kts 90°
2026-04-25 13:57 29.65685 -73.52057 41041 ft 502 kts 90°
2026-04-25 13:58 29.65701 -73.44028 41043 ft 502 kts 90°
2026-04-25 13:58 29.65711 -73.36043 41039 ft 503 kts 90°
2026-04-25 13:59 29.65717 -73.28008 41038 ft 503 kts 90°
2026-04-25 13:59 29.65718 -73.19970 41032 ft 503 kts 90°
2026-04-25 14:00 29.65715 -73.11898 41029 ft 504 kts 90°
2026-04-25 14:00 29.65706 -73.03884 41032 ft 504 kts 91°
2026-04-25 14:01 29.65693 -72.95813 41042 ft 504 kts 91°
2026-04-25 14:01 29.65675 -72.87748 41044 ft 505 kts 91°
2026-04-25 14:02 29.65651 -72.79736 41039 ft 505 kts 91°
2026-04-25 14:02 29.65623 -72.71656 41043 ft 505 kts 91°
2026-04-25 14:03 29.65590 -72.63578 41039 ft 506 kts 91°
2026-04-25 14:03 29.65552 -72.55494 41037 ft 506 kts 91°
2026-04-25 14:04 29.65510 -72.47462 41048 ft 506 kts 91°
2026-04-25 14:04 29.65462 -72.39370 41049 ft 507 kts 91°
2026-04-25 14:05 29.65409 -72.31269 41039 ft 507 kts 91°
2026-04-25 14:05 29.65352 -72.23159 41047 ft 507 kts 91°
2026-04-25 14:06 29.65289 -72.15054 41046 ft 507 kts 91°
2026-04-25 14:06 29.65222 -72.06970 41037 ft 507 kts 91°
2026-04-25 14:07 29.65150 -71.98910 41043 ft 508 kts 91°
2026-04-25 14:07 29.65072 -71.90798 41045 ft 508 kts 91°
2026-04-25 14:08 29.64990 -71.82689 41040 ft 508 kts 91°
2026-04-25 14:08 29.64902 -71.74549 41040 ft 508 kts 91°
2026-04-25 14:09 29.64815 -71.66877 41038 ft 509 kts 91°
2026-04-25 14:09 29.64718 -71.58748 41040 ft 509 kts 91°
2026-04-25 14:10 29.64616 -71.50607 41043 ft 509 kts 91°
2026-04-25 14:10 29.64508 -71.42448 41042 ft 510 kts 91°
2026-04-25 14:11 29.64396 -71.34293 41041 ft 510 kts 91°
2026-04-25 14:11 29.64278 -71.26146 41047 ft 510 kts 91°
2026-04-25 14:12 29.64158 -71.18141 41048 ft 511 kts 92°
2026-04-25 14:12 29.64031 -71.09985 41048 ft 511 kts 92°
2026-04-25 14:13 29.63899 -71.01823 41050 ft 511 kts 92°
2026-04-25 14:13 29.63761 -70.93640 41044 ft 511 kts 92°
2026-04-25 14:14 29.63619 -70.85527 41043 ft 512 kts 92°
2026-04-25 14:14 29.63471 -70.77343 41047 ft 512 kts 92°
2026-04-25 14:15 29.63319 -70.69174 41041 ft 512 kts 92°
2026-04-25 14:15 29.63161 -70.60985 41047 ft 512 kts 92°
2026-04-25 14:16 29.62998 -70.52801 41042 ft 513 kts 92°
2026-04-25 14:16 29.62830 -70.44594 41049 ft 513 kts 92°
2026-04-25 14:17 29.62657 -70.36446 41048 ft 514 kts 92°
2026-04-25 14:17 29.62479 -70.28230 41049 ft 514 kts 92°
2026-04-25 14:18 29.62295 -70.20022 41048 ft 514 kts 92°
2026-04-25 14:18 29.62107 -70.11814 41050 ft 515 kts 92°
2026-04-25 14:19 29.61912 -70.03569 41051 ft 515 kts 92°
2026-04-25 14:19 29.61714 -69.95399 41049 ft 515 kts 92°
2026-04-25 14:20 29.61510 -69.87163 41052 ft 516 kts 92°
2026-04-25 14:20 29.61300 -69.78916 41046 ft 516 kts 92°
2026-04-25 14:21 29.61084 -69.70653 41048 ft 517 kts 92°
2026-04-25 14:21 29.60866 -69.62457 41051 ft 517 kts 92°
2026-04-25 14:22 29.60640 -69.54189 41050 ft 517 kts 92°
2026-04-25 14:22 29.60409 -69.45927 41046 ft 518 kts 92°
2026-04-25 14:23 29.60173 -69.37654 41056 ft 518 kts 92°
2026-04-25 14:23 29.59932 -69.29379 41054 ft 519 kts 92°
2026-04-25 14:24 29.59687 -69.21158 41051 ft 519 kts 93°
2026-04-25 14:24 29.59434 -69.12847 41052 ft 520 kts 93°
2026-04-25 14:25 29.59177 -69.04568 41058 ft 520 kts 93°
2026-04-25 14:25 29.58913 -68.96239 41055 ft 520 kts 93°
2026-04-25 14:26 29.58645 -68.87936 41058 ft 521 kts 93°
2026-04-25 14:26 29.58373 -68.79667 41053 ft 521 kts 93°
2026-04-25 14:27 29.58094 -68.71345 41053 ft 522 kts 93°
2026-04-25 14:27 29.57810 -68.63028 41054 ft 522 kts 93°
2026-04-25 14:28 29.57520 -68.54686 41055 ft 522 kts 93°
2026-04-25 14:28 29.57225 -68.46342 41054 ft 523 kts 93°
2026-04-25 14:29 29.56924 -68.38001 41053 ft 523 kts 94°
2026-04-25 14:29 29.56620 -68.29710 41052 ft 524 kts 94°
2026-04-25 14:30 29.56309 -68.21348 41057 ft 524 kts 94°
2026-04-25 14:30 29.55830 -68.08791 41057 ft 525 kts 94°
2026-04-25 14:31 29.55505 -68.00420 41054 ft 525 kts 94°
2026-04-25 14:31 29.55176 -67.92095 41052 ft 526 kts 94°
2026-04-25 14:32 29.54840 -67.83713 41052 ft 526 kts 94°
2026-04-25 14:32 29.54498 -67.75315 41052 ft 526 kts 94°
2026-04-25 14:33 29.54151 -67.66917 41056 ft 527 kts 94°
2026-04-25 14:33 29.53797 -67.58506 41056 ft 527 kts 94°
2026-04-25 14:34 29.53441 -67.50160 41056 ft 528 kts 94°
2026-04-25 14:34 29.53077 -67.41738 41057 ft 528 kts 94°
2026-04-25 14:35 29.52707 -67.33310 41057 ft 528 kts 95°
2026-04-25 14:35 29.52332 -67.24893 41056 ft 529 kts 95°
2026-04-25 14:36 29.51953 -67.16504 41053 ft 529 kts 95°
2026-04-25 14:36 29.51567 -67.08069 41052 ft 529 kts 95°
2026-04-25 14:37 29.51175 -66.99637 41053 ft 530 kts 95°
2026-04-25 14:37 29.50778 -66.91203 41054 ft 530 kts 95°
2026-04-25 14:38 29.50375 -66.82748 41053 ft 530 kts 95°
2026-04-25 14:38 29.49969 -66.74353 41057 ft 530 kts 95°
2026-04-25 14:39 29.49556 -66.65910 41055 ft 530 kts 95°
2026-04-25 14:39 29.49136 -66.57450 41054 ft 530 kts 95°
2026-04-25 14:40 29.48711 -66.49001 41055 ft 530 kts 95°
2026-04-25 14:40 29.48285 -66.40615 41056 ft 530 kts 95°
2026-04-25 14:41 29.47849 -66.32158 41056 ft 530 kts 95°
2026-04-25 14:41 29.47409 -66.23720 41054 ft 530 kts 95°
2026-04-25 14:42 29.47038 -66.16690 41054 ft 530 kts 96°
2026-04-25 14:42 29.46511 -66.06820 41045 ft 531 kts 96°
2026-04-25 14:43 29.46055 -65.98367 41048 ft 531 kts 96°
2026-04-25 14:43 29.45596 -65.89976 41062 ft 531 kts 96°
2026-04-25 14:44 29.45129 -65.81535 41067 ft 531 kts 96°
2026-04-25 14:44 29.44656 -65.73090 41051 ft 531 kts 96°
2026-04-25 14:45 29.44177 -65.64622 41046 ft 531 kts 96°
2026-04-25 14:45 29.43693 -65.56171 41047 ft 531 kts 96°
2026-04-25 14:46 29.43206 -65.47764 41049 ft 532 kts 96°
2026-04-25 14:46 29.42710 -65.39287 41047 ft 533 kts 96°
2026-04-25 14:47 29.42294 -65.32240 41042 ft 533 kts 97°
2026-04-25 14:47 29.41701 -65.22322 41034 ft 534 kts 97°
2026-04-25 14:48 29.41191 -65.13876 41040 ft 535 kts 97°
2026-04-25 14:48 29.40671 -65.05357 41043 ft 536 kts 97°
2026-04-25 14:49 29.40145 -64.96832 41060 ft 536 kts 97°
2026-04-25 14:49 29.39613 -64.88295 41056 ft 537 kts 97°
2026-04-25 14:50 29.39074 -64.79738 41052 ft 538 kts 97°
2026-04-25 14:50 29.38529 -64.71178 41044 ft 539 kts 97°
2026-04-25 14:51 29.37980 -64.62646 41051 ft 540 kts 98°
2026-04-25 14:51 29.37423 -64.54060 41048 ft 541 kts 98°
2026-04-25 14:52 29.36858 -64.45447 41044 ft 542 kts 98°
2026-04-25 14:52 29.36383 -64.38270 41043 ft 544 kts 98°
2026-04-25 14:53 29.35712 -64.28226 41046 ft 545 kts 99°
2026-04-25 14:53 29.35125 -64.19538 41047 ft 547 kts 99°
2026-04-25 14:54 29.34532 -64.10842 41050 ft 548 kts 99°
2026-04-25 14:54 29.33932 -64.02119 41051 ft 550 kts 99°
2026-04-25 14:55 29.33325 -63.93387 41054 ft 552 kts 99°
2026-04-25 14:55 29.32708 -63.84591 41047 ft 553 kts 99°
2026-04-25 14:56 29.32085 -63.75796 41052 ft 555 kts 100°
2026-04-25 14:56 29.31458 -63.67033 41057 ft 556 kts 100°
2026-04-25 14:57 29.30822 -63.58208 41052 ft 557 kts 100°
2026-04-25 14:57 29.30177 -63.49352 41055 ft 558 kts 100°
2026-04-25 14:58 29.29526 -63.40497 41053 ft 559 kts 101°
2026-04-25 14:58 29.28868 -63.31614 41050 ft 559 kts 101°
2026-04-25 14:59 29.28203 -63.22731 41048 ft 560 kts 101°
2026-04-25 14:59 29.27532 -63.13842 41053 ft 560 kts 101°
2026-04-25 15:00 29.26855 -63.04951 41050 ft 560 kts 101°
2026-04-25 15:00 29.26176 -62.96122 41050 ft 560 kts 101°
2026-04-25 15:01 29.25487 -62.87233 41049 ft 561 kts 101°
2026-04-25 15:01 29.24792 -62.78342 41044 ft 561 kts 102°
2026-04-25 15:02 29.24090 -62.69443 41040 ft 561 kts 102°
2026-04-25 15:02 29.23381 -62.60528 41041 ft 562 kts 102°
2026-04-25 15:03 29.22671 -62.51681 41037 ft 562 kts 102°
2026-04-25 15:03 29.21949 -62.42755 41034 ft 563 kts 102°
2026-04-25 15:04 29.21222 -62.33834 41038 ft 564 kts 102°
2026-04-25 15:04 29.20485 -62.24882 41045 ft 565 kts 102°
2026-04-25 15:05 29.19743 -62.15925 41046 ft 566 kts 102°
2026-04-25 15:06 29.18620 -62.02524 41044 ft 567 kts 102°
2026-04-25 15:06 29.17861 -61.93545 41051 ft 567 kts 102°
2026-04-25 15:07 29.17094 -61.84550 41043 ft 568 kts 102°
2026-04-25 15:07 29.16320 -61.75550 41045 ft 569 kts 102°
2026-04-25 15:08 29.15546 -61.66612 41043 ft 569 kts 102°
2026-04-25 15:08 29.14759 -61.57600 41037 ft 570 kts 102°
2026-04-25 15:09 29.13964 -61.48574 41043 ft 570 kts 102°
2026-04-25 15:09 29.12760 -61.35020 41044 ft 571 kts 102°
2026-04-25 15:10 29.11956 -61.26053 41034 ft 572 kts 102°
2026-04-25 15:11 29.10726 -61.12477 41043 ft 572 kts 101°
2026-04-25 15:11 29.09897 -61.03412 41039 ft 573 kts 101°
2026-04-25 15:12 29.08643 -60.89820 41034 ft 573 kts 101°
2026-04-25 15:12 29.08084 -60.83810 41037 ft 573 kts 101°
2026-04-25 15:13 29.06530 -60.67207 41046 ft 573 kts 101°
2026-04-25 15:14 29.05677 -60.58146 41049 ft 573 kts 101°
2026-04-25 15:14 29.04818 -60.49088 41041 ft 573 kts 101°
2026-04-25 15:15 29.03954 -60.40050 41044 ft 573 kts 102°
2026-04-25 15:15 29.03083 -60.30999 41040 ft 572 kts 102°
2026-04-25 15:16 29.02213 -60.22024 41033 ft 572 kts 102°
2026-04-25 15:16 29.00892 -60.08510 41035 ft 571 kts 102°
2026-04-25 15:17 28.99758 -59.94945 41031 ft 575 kts 94°
2026-04-25 15:18 29.00008 -59.85784 41025 ft 577 kts 91°
2026-04-25 15:18 29.00284 -59.72075 41027 ft 576 kts 93°
2026-04-25 15:19 29.00342 -59.65989 41029 ft 576 kts 93°
2026-04-25 15:19 29.00438 -59.53806 41034 ft 577 kts 93°
2026-04-25 15:20 29.00505 -59.44659 41036 ft 577 kts 93°
2026-04-25 15:20 29.00565 -59.35520 41027 ft 577 kts 93°
2026-04-25 15:21 29.00621 -59.26323 41039 ft 577 kts 93°
2026-04-25 15:21 29.00669 -59.17214 41032 ft 577 kts 93°
2026-04-25 15:22 29.00712 -59.08046 41032 ft 577 kts 93°
2026-04-25 15:22 29.00748 -58.98872 41031 ft 577 kts 93°
2026-04-25 15:23 29.00778 -58.89716 41030 ft 577 kts 93°
2026-04-25 15:23 29.00802 -58.80545 41032 ft 577 kts 94°
2026-04-25 15:24 29.00819 -58.71429 41027 ft 577 kts 94°
2026-04-25 15:24 29.00827 -58.65306 41023 ft 577 kts 94°
2026-04-25 15:25 29.00836 -58.53108 41022 ft 577 kts 94°
2026-04-25 15:25 29.00835 -58.43933 41026 ft 577 kts 94°
2026-04-25 15:26 29.00827 -58.34769 41017 ft 578 kts 94°
2026-04-25 15:26 29.00814 -58.25627 41022 ft 578 kts 94°
2026-04-25 15:27 29.00794 -58.16443 41031 ft 578 kts 94°
2026-04-25 15:28 29.00753 -58.02667 41027 ft 578 kts 94°
2026-04-25 15:28 29.00718 -57.93471 41025 ft 579 kts 94°
2026-04-25 15:29 29.00676 -57.84271 41025 ft 579 kts 94°
2026-04-25 15:29 29.00636 -57.76618 41020 ft 579 kts 94°
2026-04-25 15:30 29.00574 -57.65920 41024 ft 579 kts 94°
2026-04-25 15:30 29.00514 -57.56725 41024 ft 579 kts 94°
2026-04-25 15:31 29.00459 -57.49062 41022 ft 580 kts 94°
2026-04-25 15:31 29.00387 -57.39860 41021 ft 580 kts 94°
2026-04-25 15:32 29.00309 -57.30645 41019 ft 580 kts 94°
2026-04-25 15:32 29.00224 -57.21429 41019 ft 580 kts 94°
2026-04-25 15:33 29.00086 -57.07609 41018 ft 581 kts 94°
2026-04-25 15:33 28.99993 -56.98434 41017 ft 581 kts 93°
2026-04-25 15:34 29.00192 -56.89192 41018 ft 582 kts 90°
2026-04-25 15:34 29.00433 -56.81513 41017 ft 582 kts 91°
2026-04-25 15:35 29.00834 -56.66084 41016 ft 583 kts 91°
2026-04-25 15:36 29.01157 -56.52245 41021 ft 583 kts 91°
2026-04-25 15:36 29.01362 -56.42985 41019 ft 583 kts 91°
2026-04-25 15:37 29.01560 -56.33720 41019 ft 584 kts 91°
2026-04-25 15:37 29.01751 -56.24443 41014 ft 584 kts 91°
2026-04-25 15:38 29.01935 -56.15235 41012 ft 584 kts 91°
2026-04-25 15:38 29.02114 -56.05962 41013 ft 584 kts 91°
2026-04-25 15:39 29.02287 -55.96682 41012 ft 584 kts 91°
2026-04-25 15:39 29.02452 -55.87471 41008 ft 584 kts 91°
2026-04-25 15:40 29.02587 -55.79706 41010 ft 584 kts 91°
2026-04-25 15:40 29.02767 -55.68846 41008 ft 584 kts 91°
2026-04-25 15:41 29.02913 -55.59628 41007 ft 585 kts 91°
2026-04-25 15:41 29.03055 -55.50325 41009 ft 585 kts 91°
2026-04-25 15:42 29.03189 -55.41054 41007 ft 585 kts 91°
2026-04-25 15:42 29.03318 -55.31744 41010 ft 585 kts 91°
2026-04-25 15:43 29.03440 -55.22440 41008 ft 585 kts 91°
2026-04-25 15:43 29.03555 -55.13148 41007 ft 585 kts 91°
2026-04-25 15:44 29.03664 -55.03905 41006 ft 585 kts 91°
2026-04-25 15:44 29.03767 -54.94594 41006 ft 586 kts 91°
2026-04-25 15:45 29.03863 -54.85282 41006 ft 586 kts 92°
2026-04-25 15:45 29.03939 -54.77535 41006 ft 586 kts 92°
2026-04-25 15:46 29.04036 -54.66709 41007 ft 586 kts 92°
2026-04-25 15:46 29.04114 -54.57404 41004 ft 586 kts 92°
2026-04-25 15:47 29.04185 -54.48084 41009 ft 586 kts 92°
2026-04-25 15:47 29.04249 -54.38764 41006 ft 587 kts 92°
2026-04-25 15:48 29.04307 -54.29442 41007 ft 587 kts 92°
2026-04-25 15:48 29.04359 -54.20116 41007 ft 587 kts 92°
2026-04-25 15:49 29.04404 -54.10789 41006 ft 587 kts 92°
2026-04-25 15:49 29.04443 -54.01526 41006 ft 587 kts 92°
2026-04-25 15:50 29.04475 -53.92214 41007 ft 587 kts 92°
2026-04-25 15:50 29.04501 -53.82854 41005 ft 587 kts 92°
2026-04-25 15:51 29.04518 -53.75096 41008 ft 588 kts 92°
2026-04-25 15:51 29.04533 -53.64191 41005 ft 588 kts 92°
2026-04-25 15:52 29.04540 -53.54842 41005 ft 588 kts 92°
2026-04-25 15:52 29.04540 -53.45494 41006 ft 588 kts 92°
2026-04-25 15:53 29.04534 -53.36219 41005 ft 588 kts 92°
2026-04-25 15:53 29.04521 -53.26868 41001 ft 589 kts 92°
2026-04-25 15:54 29.04502 -53.17524 41007 ft 589 kts 92°
2026-04-25 15:54 29.04476 -53.08187 41001 ft 589 kts 92°
2026-04-25 15:55 29.04444 -52.98811 41001 ft 590 kts 92°
2026-04-25 15:55 29.04405 -52.89432 41006 ft 590 kts 92°
2026-04-25 15:56 29.04359 -52.80064 41003 ft 590 kts 92°
2026-04-25 15:56 29.04308 -52.70675 41007 ft 590 kts 92°
2026-04-25 15:57 29.04250 -52.61360 40999 ft 590 kts 92°
2026-04-25 15:57 29.04185 -52.51987 40994 ft 590 kts 92°
2026-04-25 15:58 29.04113 -52.42604 40996 ft 591 kts 92°
2026-04-25 15:58 29.04036 -52.33228 40999 ft 591 kts 92°
2026-04-25 15:59 29.03951 -52.23820 41002 ft 591 kts 93°
2026-04-25 15:59 29.03860 -52.14489 41005 ft 591 kts 93°
2026-04-25 16:00 29.03796 -52.08201 41009 ft 592 kts 93°
2026-04-25 16:00 29.03658 -51.95680 41008 ft 592 kts 93°
2026-04-25 16:01 29.03547 -51.86258 41010 ft 593 kts 93°
2026-04-25 16:01 29.03431 -51.76900 41019 ft 593 kts 93°
2026-04-25 16:02 29.03307 -51.67481 41015 ft 593 kts 93°
2026-04-25 16:02 29.03176 -51.58057 41008 ft 593 kts 93°
2026-04-25 16:03 29.03038 -51.48621 41007 ft 593 kts 93°
2026-04-25 16:03 29.02895 -51.39257 40992 ft 594 kts 93°
2026-04-25 16:04 29.02745 -51.29818 41003 ft 593 kts 93°
2026-04-25 16:04 29.02588 -51.20428 41005 ft 594 kts 93°
2026-04-25 16:05 29.02425 -51.11001 41007 ft 594 kts 93°
2026-04-25 16:06 29.02166 -50.96836 41007 ft 595 kts 93°
2026-04-25 16:06 29.01986 -50.87391 41003 ft 595 kts 93°
2026-04-25 16:07 29.01799 -50.77948 41008 ft 595 kts 93°
2026-04-25 16:07 29.01606 -50.68559 41011 ft 595 kts 93°
2026-04-25 16:08 29.01406 -50.59108 41017 ft 595 kts 93°
2026-04-25 16:08 29.01199 -50.49653 41019 ft 595 kts 93°
2026-04-25 16:09 29.00985 -50.40194 41013 ft 596 kts 93°
2026-04-25 16:09 29.00766 -50.30801 41002 ft 596 kts 94°
2026-04-25 16:10 29.00542 -50.21338 41025 ft 596 kts 93°
2026-04-25 16:10 29.00314 -50.11865 41016 ft 596 kts 93°
2026-04-25 16:11 29.00081 -50.02399 41010 ft 597 kts 94°
2026-04-25 16:11 29.00010 -49.92911 41014 ft 597 kts 90°
2026-04-25 16:12 29.00249 -49.83425 41023 ft 597 kts 89°
2026-04-25 16:12 29.00450 -49.74000 41026 ft 597 kts 90°
2026-04-25 16:13 29.00614 -49.64511 41016 ft 597 kts 90°
2026-04-25 16:13 29.00761 -49.55034 41010 ft 597 kts 90°
2026-04-25 16:14 29.00901 -49.45563 41015 ft 597 kts 90°
2026-04-25 16:14 29.01035 -49.36082 41010 ft 596 kts 90°
2026-04-25 16:15 29.01162 -49.26612 41012 ft 596 kts 90°
2026-04-25 16:15 29.01282 -49.17211 41020 ft 596 kts 90°
2026-04-25 16:16 29.01396 -49.07724 41024 ft 596 kts 90°
2026-04-25 16:16 29.01503 -48.98247 41023 ft 596 kts 90°
2026-04-25 16:17 29.01604 -48.88760 41028 ft 596 kts 90°
2026-04-25 16:17 29.01698 -48.79289 41030 ft 596 kts 90°
2026-04-25 16:18 29.01786 -48.69802 41025 ft 597 kts 90°
2026-04-25 16:18 29.01866 -48.60363 41029 ft 596 kts 90°
2026-04-25 16:19 29.01940 -48.50888 41029 ft 597 kts 90°
2026-04-25 16:19 29.02008 -48.41421 41032 ft 596 kts 90°
2026-04-25 16:20 29.02096 -48.27256 41035 ft 596 kts 90°
2026-04-25 16:21 29.02170 -48.13039 41038 ft 596 kts 90°
2026-04-25 16:21 29.02211 -48.03565 41035 ft 596 kts 90°
2026-04-25 16:22 29.02245 -47.94101 41037 ft 596 kts 90°
2026-04-25 16:22 29.02273 -47.84621 41040 ft 596 kts 90°
2026-04-25 16:23 29.02294 -47.75133 41040 ft 596 kts 90°
2026-04-25 16:23 29.02308 -47.65730 41039 ft 596 kts 90°
2026-04-25 16:24 29.02316 -47.56267 41042 ft 596 kts 91°
2026-04-25 16:24 29.02317 -47.46794 41047 ft 596 kts 91°
2026-04-25 16:25 29.02312 -47.38920 41047 ft 596 kts 91°
2026-04-25 16:25 29.02299 -47.27845 41048 ft 596 kts 91°
2026-04-25 16:26 29.02280 -47.18431 41046 ft 596 kts 91°
2026-04-25 16:26 29.02255 -47.08968 41045 ft 596 kts 91°
2026-04-25 16:27 29.02223 -46.99508 41054 ft 596 kts 91°
2026-04-25 16:27 29.02184 -46.90058 41070 ft 594 kts 91°
2026-04-25 16:28 29.02139 -46.80619 41068 ft 593 kts 91°
2026-04-25 16:28 29.02131 -46.79093 41061 ft 593 kts 91°
2026-04-25 16:29 29.01963 -46.52248 41047 ft 591 kts 91°
2026-04-25 16:30 29.01904 -46.44442 41044 ft 591 kts 91°
2026-04-25 16:30 29.01814 -46.33465 41046 ft 591 kts 91°
2026-04-25 16:31 29.01729 -46.24058 41050 ft 592 kts 91°
2026-04-25 16:31 29.01639 -46.14713 41049 ft 592 kts 91°
2026-04-25 16:32 29.01542 -46.05301 41059 ft 593 kts 91°
2026-04-25 16:32 29.01437 -45.95883 41058 ft 594 kts 91°
2026-04-25 16:33 29.01326 -45.86446 41064 ft 594 kts 91°
2026-04-25 16:33 29.01209 -45.77001 41072 ft 595 kts 91°
2026-04-25 16:34 29.01085 -45.67613 41067 ft 595 kts 91°
2026-04-25 16:34 29.00954 -45.58149 41072 ft 595 kts 91°
2026-04-25 16:35 29.00816 -45.48697 41074 ft 595 kts 91°
2026-04-25 16:35 29.00672 -45.39235 41075 ft 595 kts 91°
2026-04-25 16:36 29.00521 -45.29779 41073 ft 595 kts 92°
2026-04-25 16:36 29.00365 -45.20378 41076 ft 595 kts 92°
2026-04-25 16:37 29.00204 -45.10927 41072 ft 595 kts 92°
2026-04-25 16:37 28.99567 -45.01519 41075 ft 593 kts 102°
2026-04-25 16:38 28.97591 -44.92468 41055 ft 585 kts 113°
2026-04-25 16:38 28.94772 -44.83752 41070 ft 586 kts 114°
2026-04-25 16:39 28.91997 -44.75056 41079 ft 587 kts 114°
2026-04-25 16:39 28.89184 -44.66296 41103 ft 588 kts 114°
2026-04-25 16:40 28.86357 -44.57532 41101 ft 589 kts 114°
2026-04-25 16:40 28.83517 -44.48756 41101 ft 589 kts 114°
2026-04-25 16:41 28.80676 -44.40001 41097 ft 589 kts 114°
2026-04-25 16:41 28.76427 -44.26946 41094 ft 588 kts 114°
2026-04-25 16:42 28.73567 -44.18185 41088 ft 587 kts 114°
2026-04-25 16:42 28.70715 -44.09472 41088 ft 587 kts 114°
2026-04-25 16:43 28.67880 -44.00831 41084 ft 586 kts 114°
2026-04-25 16:43 28.65334 -43.93091 41079 ft 586 kts 114°
2026-04-25 16:44 28.62473 -43.84411 41077 ft 586 kts 114°
2026-04-25 16:44 28.59599 -43.75717 41082 ft 586 kts 114°
2026-04-25 16:45 28.56745 -43.67104 41080 ft 587 kts 114°
2026-04-25 16:45 28.53859 -43.58413 41084 ft 587 kts 114°
2026-04-25 16:46 28.50972 -43.49741 41088 ft 587 kts 114°
2026-04-25 16:46 28.49052 -43.43985 41087 ft 587 kts 114°
2026-04-25 16:47 28.45171 -43.32382 41095 ft 588 kts 114°
2026-04-25 16:47 28.42280 -43.23761 41097 ft 588 kts 114°
2026-04-25 16:48 28.39357 -43.15069 41092 ft 588 kts 114°
2026-04-25 16:48 28.36437 -43.06405 41096 ft 588 kts 114°
2026-04-25 16:49 28.34970 -43.02058 41287 ft 588 kts 114°
2026-04-25 16:49 28.33498 -42.97700 41070 ft 592 kts 116°
2026-04-25 16:49 28.30554 -42.89010 41095 ft 589 kts 117°
2026-04-25 16:50 28.27617 -42.80356 41085 ft 588 kts 117°
2026-04-25 16:50 28.25166 -42.73154 41078 ft 587 kts 117°
2026-04-25 16:51 28.21746 -42.63127 41078 ft 587 kts 117°
2026-04-25 16:51 28.19775 -42.57361 41078 ft 587 kts 117°
2026-04-25 16:52 28.16325 -42.47289 41078 ft 587 kts 117°
2026-04-25 16:52 28.13377 -42.38705 41087 ft 588 kts 117°
2026-04-25 16:53 28.08921 -42.25769 41099 ft 589 kts 117°
2026-04-25 16:54 28.05933 -42.17120 41098 ft 590 kts 117°
2026-04-25 16:54 28.02934 -42.08459 41105 ft 590 kts 117°
2026-04-25 16:55 27.99836 -41.99859 41118 ft 586 kts 122°
2026-04-25 16:55 27.96012 -41.91869 41110 ft 581 kts 126°
2026-04-25 16:56 27.92099 -41.83879 41114 ft 581 kts 126°
2026-04-25 16:56 27.88189 -41.75892 41102 ft 580 kts 126°
2026-04-25 16:57 27.84277 -41.67930 41107 ft 579 kts 126°
2026-04-25 16:57 27.80365 -41.59987 41105 ft 579 kts 126°
2026-04-25 16:58 27.76469 -41.52093 41108 ft 578 kts 127°
2026-04-25 16:58 27.72552 -41.44169 41105 ft 578 kts 127°
2026-04-25 16:59 27.68628 -41.36246 41100 ft 577 kts 127°
2026-04-25 16:59 27.64710 -41.28351 41106 ft 577 kts 127°
2026-04-25 17:00 27.60789 -41.20465 41105 ft 577 kts 127°
2026-04-25 17:00 27.56924 -41.12704 41107 ft 577 kts 127°
2026-04-25 17:01 27.52927 -41.04695 41106 ft 576 kts 127°
2026-04-25 17:01 27.49021 -40.96880 41108 ft 576 kts 127°
2026-04-25 17:02 27.45154 -40.89159 41107 ft 576 kts 127°
2026-04-25 17:02 27.41212 -40.81302 41109 ft 576 kts 127°
2026-04-25 17:03 27.37273 -40.73466 41108 ft 576 kts 127°
2026-04-25 17:03 27.33331 -40.65637 41120 ft 575 kts 127°
2026-04-25 17:04 27.29397 -40.57840 41117 ft 575 kts 127°
2026-04-25 17:04 27.25449 -40.50028 41105 ft 575 kts 127°
2026-04-25 17:05 27.21492 -40.42213 41112 ft 575 kts 127°
2026-04-25 17:05 27.15559 -40.30520 41108 ft 575 kts 127°
2026-04-25 17:06 27.11593 -40.22723 41106 ft 574 kts 127°
2026-04-25 17:06 27.07652 -40.14988 41107 ft 574 kts 127°
2026-04-25 17:07 27.03682 -40.07208 41107 ft 574 kts 127°
2026-04-25 17:07 26.99712 -39.99440 41112 ft 574 kts 127°
2026-04-25 17:08 26.95934 -39.91517 41107 ft 578 kts 123°
2026-04-25 17:08 26.92246 -39.83513 41108 ft 578 kts 123°
2026-04-25 17:09 26.88548 -39.75585 41108 ft 578 kts 124°
2026-04-25 17:09 26.84813 -39.67627 41111 ft 578 kts 124°
2026-04-25 17:10 26.81066 -39.59667 41109 ft 578 kts 124°
2026-04-25 17:10 26.77329 -39.51748 41109 ft 578 kts 124°
2026-04-25 17:11 26.73573 -39.43805 41108 ft 578 kts 124°
2026-04-25 17:11 26.69810 -39.35861 41108 ft 578 kts 123°
2026-04-25 17:12 26.66065 -39.27969 41107 ft 577 kts 123°
2026-04-25 17:12 26.62291 -39.20034 41102 ft 577 kts 123°
2026-04-25 17:13 26.59157 -39.13452 41101 ft 577 kts 123°
2026-04-25 17:13 26.54745 -39.04204 41100 ft 577 kts 123°
2026-04-25 17:14 26.50998 -38.96367 41104 ft 577 kts 123°
2026-04-25 17:14 26.47211 -38.88459 41100 ft 577 kts 123°
2026-04-25 17:15 26.43425 -38.80569 41104 ft 577 kts 123°
2026-04-25 17:15 26.39652 -38.72719 41097 ft 577 kts 123°
2026-04-25 17:16 26.35859 -38.64843 41059 ft 577 kts 122°
2026-04-25 17:16 26.32039 -38.56927 41102 ft 585 kts 121°
2026-04-25 17:17 26.28147 -38.48873 41100 ft 588 kts 121°
2026-04-25 17:17 26.24300 -38.40922 41101 ft 587 kts 121°
2026-04-25 17:18 26.20624 -38.33472 41304 ft 580 kts 126°
2026-04-25 17:18 26.18618 -38.29587 41596 ft 582 kts 121°
2026-04-25 17:18 26.16717 -38.25600 41566 ft 585 kts 120°
2026-04-25 17:19 26.14831 -38.21588 41267 ft 583 kts 120°
2026-04-25 17:19 26.12941 -38.17611 41107 ft 582 kts 121°
2026-04-25 17:19 26.09076 -38.09618 41109 ft 588 kts 121°
2026-04-25 17:20 26.05206 -38.01690 41110 ft 587 kts 121°
2026-04-25 17:20 26.01302 -37.93711 41108 ft 587 kts 121°
2026-04-25 17:21 25.97394 -37.85740 41108 ft 587 kts 121°
2026-04-25 17:21 25.93487 -37.77783 41115 ft 587 kts 121°
2026-04-25 17:22 25.90233 -37.71169 41106 ft 587 kts 121°
2026-04-25 17:22 25.85678 -37.61922 41117 ft 587 kts 121°
2026-04-25 17:23 25.81754 -37.53974 41113 ft 586 kts 121°
2026-04-25 17:23 25.77828 -37.46034 41112 ft 586 kts 121°
2026-04-25 17:24 25.73906 -37.38119 41108 ft 586 kts 121°
2026-04-25 17:24 25.69978 -37.30204 41110 ft 585 kts 121°
2026-04-25 17:25 25.66069 -37.22340 41111 ft 585 kts 121°
2026-04-25 17:25 25.62138 -37.14447 41113 ft 585 kts 121°
2026-04-25 17:26 25.58202 -37.06556 41112 ft 585 kts 121°
2026-04-25 17:26 25.54267 -36.98682 41112 ft 584 kts 121°
2026-04-25 17:27 25.50347 -36.90852 41111 ft 584 kts 121°
2026-04-25 17:27 25.47711 -36.85592 41112 ft 584 kts 121°
2026-04-25 17:28 25.42466 -36.75148 41113 ft 584 kts 121°
2026-04-25 17:28 25.38538 -36.67342 41111 ft 583 kts 121°
2026-04-25 17:29 25.34581 -36.59491 41111 ft 583 kts 121°
2026-04-25 17:29 25.30626 -36.51658 41113 ft 583 kts 122°
2026-04-25 17:30 25.26670 -36.43836 41112 ft 583 kts 122°
2026-04-25 17:30 25.22734 -36.36066 41119 ft 583 kts 122°
2026-04-25 17:31 25.18767 -36.28249 41116 ft 584 kts 122°
2026-04-25 17:31 25.14794 -36.20433 41117 ft 584 kts 122°
2026-04-25 17:32 25.10823 -36.12632 41120 ft 584 kts 122°
2026-04-25 17:32 25.06835 -36.04814 41121 ft 583 kts 122°
2026-04-25 17:33 25.02870 -35.97053 41137 ft 583 kts 122°
2026-04-25 17:33 24.98886 -35.89266 41134 ft 583 kts 122°
2026-04-25 17:34 24.94893 -35.81476 41114 ft 583 kts 122°
2026-04-25 17:34 24.90911 -35.73721 41108 ft 583 kts 122°
2026-04-25 17:35 24.86939 -35.65997 41106 ft 583 kts 122°
2026-04-25 17:35 24.82942 -35.58237 41109 ft 582 kts 122°
2026-04-25 17:36 24.78946 -35.50493 41124 ft 582 kts 122°
2026-04-25 17:36 24.74973 -35.42805 41123 ft 581 kts 122°
2026-04-25 17:37 24.70973 -35.35078 41117 ft 581 kts 122°
2026-04-25 17:37 24.66967 -35.27353 41117 ft 581 kts 122°
2026-04-25 17:38 24.63632 -35.20930 41121 ft 581 kts 122°
2026-04-25 17:38 24.58950 -35.11928 41121 ft 581 kts 122°
2026-04-25 17:39 24.54937 -35.04226 41123 ft 581 kts 122°
2026-04-25 17:39 24.50943 -34.96573 41123 ft 581 kts 122°
2026-04-25 17:40 24.46922 -34.88879 41118 ft 580 kts 122°
2026-04-25 17:40 24.42909 -34.81215 41129 ft 580 kts 122°
2026-04-25 17:41 24.38886 -34.73543 41127 ft 580 kts 122°
2026-04-25 17:41 24.34852 -34.65861 41131 ft 580 kts 122°
2026-04-25 17:42 24.30853 -34.58261 41122 ft 580 kts 122°
2026-04-25 17:42 24.26814 -34.50595 41128 ft 580 kts 122°
2026-04-25 17:43 24.22782 -34.42955 41130 ft 580 kts 123°
2026-04-25 17:43 24.18744 -34.35314 41128 ft 580 kts 123°
2026-04-25 17:44 24.14722 -34.27717 41127 ft 579 kts 123°
2026-04-25 17:44 24.10681 -34.20092 41127 ft 579 kts 123°
2026-04-25 17:45 24.07975 -34.14990 41127 ft 579 kts 123°
2026-04-25 17:45 24.02588 -34.04848 41130 ft 579 kts 123°
2026-04-25 17:46 23.98443 -33.97329 41126 ft 577 kts 126°
2026-04-25 17:46 23.94166 -33.89898 41126 ft 577 kts 125°
2026-04-25 17:47 23.89919 -33.82442 41128 ft 577 kts 125°
2026-04-25 17:47 23.85706 -33.75088 41127 ft 577 kts 125°
2026-04-25 17:48 23.79290 -33.63935 41128 ft 577 kts 125°
2026-04-25 17:49 23.75013 -33.56520 41129 ft 577 kts 125°
2026-04-25 17:49 23.70739 -33.49117 41127 ft 577 kts 125°
2026-04-25 17:50 23.66487 -33.41766 41128 ft 576 kts 125°
2026-04-25 17:50 23.62204 -33.34371 41129 ft 576 kts 125°
2026-04-25 17:51 23.57925 -33.26994 41128 ft 576 kts 125°
2026-04-25 17:51 23.53642 -33.19621 41130 ft 576 kts 125°
2026-04-25 17:52 23.49354 -33.12249 41139 ft 575 kts 125°
2026-04-25 17:52 23.45069 -33.04895 41130 ft 575 kts 126°
2026-04-25 17:53 23.40802 -32.97582 41124 ft 575 kts 126°
2026-04-25 17:53 23.36512 -32.90240 41121 ft 575 kts 126°
2026-04-25 17:54 23.32225 -32.82913 41127 ft 575 kts 126°
2026-04-25 17:54 23.27925 -32.75574 41123 ft 574 kts 126°
2026-04-25 17:55 23.23657 -32.68301 41122 ft 574 kts 126°
2026-04-25 17:55 23.19360 -32.60989 41123 ft 574 kts 126°
2026-04-25 17:56 23.15054 -32.53673 41121 ft 574 kts 126°
2026-04-25 17:56 23.10753 -32.46375 41122 ft 574 kts 126°
2026-04-25 17:57 23.06473 -32.39122 41120 ft 574 kts 126°
2026-04-25 17:57 23.02161 -32.31826 41116 ft 573 kts 126°
2026-04-25 17:58 22.97856 -32.24552 41123 ft 573 kts 126°
2026-04-25 17:58 22.93542 -32.17272 41119 ft 573 kts 126°
2026-04-25 17:59 22.89235 -32.10017 41116 ft 572 kts 126°
2026-04-25 17:59 22.84954 -32.02813 41117 ft 572 kts 126°
2026-04-25 18:00 22.81345 -31.96749 41116 ft 571 kts 126°
2026-04-25 18:00 22.76338 -31.88347 41129 ft 571 kts 126°
2026-04-25 18:01 22.72031 -31.81129 41129 ft 570 kts 126°
2026-04-25 18:01 22.67723 -31.73921 41124 ft 569 kts 126°
2026-04-25 18:02 22.63448 -31.66777 41116 ft 569 kts 126°
2026-04-25 18:02 22.59145 -31.59597 41091 ft 569 kts 126°
2026-04-25 18:03 22.54841 -31.52425 41092 ft 568 kts 126°
2026-04-25 18:03 22.50539 -31.45266 41110 ft 568 kts 126°
2026-04-25 18:04 22.46226 -31.38099 41104 ft 568 kts 126°
2026-04-25 18:04 22.41911 -31.30937 41103 ft 568 kts 126°
2026-04-25 18:05 22.37620 -31.23826 41101 ft 569 kts 126°
2026-04-25 18:05 22.33303 -31.16681 41107 ft 569 kts 126°
2026-04-25 18:06 22.28973 -31.09522 41109 ft 568 kts 126°
2026-04-25 18:06 22.24650 -31.02387 41109 ft 568 kts 126°
2026-04-25 18:07 22.20320 -30.95249 41106 ft 568 kts 126°
2026-04-25 18:07 22.15995 -30.88128 41105 ft 567 kts 126°
2026-04-25 18:08 22.11667 -30.81013 41099 ft 567 kts 126°
2026-04-25 18:08 22.07347 -30.73919 41101 ft 566 kts 126°
2026-04-25 18:09 22.03020 -30.66825 41102 ft 566 kts 126°
2026-04-25 18:09 21.98726 -30.59792 41097 ft 565 kts 127°
2026-04-25 18:10 21.94404 -30.52722 41095 ft 565 kts 127°
2026-04-25 18:10 21.90085 -30.45669 41091 ft 564 kts 127°
2026-04-25 18:11 21.85761 -30.38616 41095 ft 564 kts 127°
2026-04-25 18:11 21.81462 -30.31612 41092 ft 564 kts 127°
2026-04-25 18:12 21.77143 -30.24584 41092 ft 563 kts 127°
2026-04-25 18:12 21.72820 -30.17559 41091 ft 563 kts 127°
2026-04-25 18:13 21.68498 -30.10546 41086 ft 563 kts 127°
2026-04-25 18:13 21.64192 -30.03567 41085 ft 562 kts 127°
2026-04-25 18:14 21.57628 -29.92950 41088 ft 578 kts 127°
2026-04-25 18:14 21.53190 -29.85773 41084 ft 577 kts 127°
2026-04-25 18:15 21.48709 -29.78645 41086 ft 576 kts 130°
2026-04-25 18:15 21.44035 -29.71611 41077 ft 576 kts 128°
2026-04-25 18:16 21.39435 -29.64597 41096 ft 575 kts 129°
2026-04-25 18:17 21.32540 -29.54148 41089 ft 575 kts 129°
2026-04-25 18:17 21.27901 -29.47142 41063 ft 574 kts 129°
2026-04-25 18:18 21.23269 -29.40155 41058 ft 574 kts 129°
2026-04-25 18:18 21.18643 -29.33188 41077 ft 574 kts 129°
2026-04-25 18:19 21.14009 -29.26216 41077 ft 573 kts 129°
2026-04-25 18:19 21.09417 -29.19316 41075 ft 572 kts 129°
2026-04-25 18:20 21.04790 -29.12373 41073 ft 572 kts 129°
2026-04-25 18:20 21.00186 -29.05471 41070 ft 572 kts 129°
2026-04-25 18:21 20.95559 -28.98544 41072 ft 571 kts 129°
2026-04-25 18:21 20.90937 -28.91634 41072 ft 571 kts 129°
2026-04-25 18:22 20.86317 -28.84735 41073 ft 570 kts 129°
2026-04-25 18:22 20.81701 -28.77849 41068 ft 570 kts 129°
2026-04-25 18:23 20.77116 -28.71019 41069 ft 569 kts 129°
2026-04-25 18:23 20.72497 -28.64145 41065 ft 569 kts 129°
2026-04-25 18:24 20.67870 -28.57269 41066 ft 569 kts 129°
2026-04-25 18:24 20.63274 -28.50446 41062 ft 568 kts 129°
2026-04-25 18:25 20.58667 -28.43615 41061 ft 567 kts 129°
2026-04-25 18:25 20.54049 -28.36778 41060 ft 567 kts 129°
2026-04-25 18:26 20.49472 -28.30007 41060 ft 567 kts 129°
2026-04-25 18:26 20.44864 -28.23198 41061 ft 566 kts 129°
2026-04-25 18:27 20.40245 -28.16382 41056 ft 566 kts 129°
2026-04-25 18:27 20.35662 -28.09627 41052 ft 565 kts 129°
2026-04-25 18:28 20.31052 -28.02840 41053 ft 565 kts 129°
2026-04-25 18:28 20.26463 -27.96088 41048 ft 554 kts 129°
2026-04-25 18:29 20.22084 -27.89645 41050 ft 530 kts 130°
2026-04-25 18:29 20.19919 -27.86469 41052 ft 531 kts 130°
2026-04-25 18:30 20.11174 -27.73664 41054 ft 535 kts 130°
2026-04-25 18:30 20.07539 -27.68344 41047 ft 535 kts 130°
2026-04-25 18:31 20.03164 -27.61948 41047 ft 535 kts 130°
2026-04-25 18:31 19.98789 -27.55558 41047 ft 535 kts 130°
2026-04-25 18:32 19.94411 -27.49171 41047 ft 534 kts 130°
2026-04-25 18:32 19.90059 -27.42830 41045 ft 534 kts 130°
2026-04-25 18:33 19.85674 -27.36447 41043 ft 540 kts 130°
2026-04-25 18:33 19.81180 -27.29918 41043 ft 555 kts 130°
2026-04-25 18:34 19.76598 -27.23260 41041 ft 554 kts 129°
2026-04-25 18:34 19.72053 -27.16660 41039 ft 555 kts 130°
2026-04-25 18:35 19.67532 -27.10109 41038 ft 554 kts 130°
2026-04-25 18:35 19.62974 -27.03509 41041 ft 554 kts 130°
2026-04-25 18:36 19.58414 -26.96915 41040 ft 554 kts 130°
2026-04-25 18:36 19.53861 -26.90337 41036 ft 553 kts 130°
2026-04-25 18:37 19.49307 -26.83766 41026 ft 553 kts 130°
2026-04-25 18:37 19.44790 -26.77255 41025 ft 552 kts 130°
2026-04-25 18:38 19.40239 -26.70702 41027 ft 552 kts 130°
2026-04-25 18:38 19.35691 -26.64160 41038 ft 551 kts 130°
2026-04-25 18:39 19.31161 -26.57651 41033 ft 551 kts 130°
2026-04-25 18:39 19.26584 -26.51084 41033 ft 556 kts 130°
2026-04-25 18:40 19.21999 -26.44508 41027 ft 554 kts 130°
2026-04-25 18:40 19.17449 -26.37988 41028 ft 548 kts 130°
2026-04-25 18:41 19.12941 -26.31541 41028 ft 549 kts 130°
2026-04-25 18:41 19.08401 -26.25052 41025 ft 548 kts 130°
2026-04-25 18:42 19.04627 -26.19664 41023 ft 548 kts 130°
2026-04-25 18:42 18.99326 -26.12098 41022 ft 547 kts 130°
2026-04-25 18:43 18.94794 -26.05637 41024 ft 547 kts 130°
2026-04-25 18:43 18.90321 -25.99196 41018 ft 547 kts 129°
2026-04-25 18:44 18.85835 -25.92707 41022 ft 547 kts 129°
2026-04-25 18:44 18.81348 -25.86232 41022 ft 546 kts 129°
2026-04-25 18:45 18.76857 -25.79764 41018 ft 546 kts 129°
2026-04-25 18:45 18.72366 -25.73303 41019 ft 546 kts 129°
2026-04-25 18:46 18.67888 -25.66868 41016 ft 545 kts 129°
2026-04-25 18:46 18.63399 -25.60422 41019 ft 545 kts 129°
2026-04-25 18:47 18.58937 -25.54021 41014 ft 545 kts 129°
2026-04-25 18:47 18.54425 -25.47557 41016 ft 545 kts 129°
2026-04-25 18:48 18.49957 -25.41160 41014 ft 545 kts 129°
2026-04-25 18:48 18.45456 -25.34725 41028 ft 545 kts 129°
2026-04-25 18:49 18.40963 -25.28305 41005 ft 545 kts 130°
2026-04-25 18:49 18.36460 -25.21879 40998 ft 545 kts 130°
2026-04-25 18:50 18.31960 -25.15464 40999 ft 545 kts 130°
2026-04-25 18:50 18.27453 -25.09044 41021 ft 545 kts 130°
2026-04-25 18:51 18.23718 -25.03729 41015 ft 545 kts 130°
2026-04-25 18:51 18.18450 -24.96240 41011 ft 544 kts 130°
2026-04-25 18:52 18.13945 -24.89842 41010 ft 544 kts 130°
2026-04-25 18:52 18.09475 -24.83501 41001 ft 544 kts 130°
2026-04-25 18:53 18.04970 -24.77116 41003 ft 543 kts 130°
2026-04-25 18:53 18.00460 -24.70731 41006 ft 543 kts 130°
2026-04-25 18:54 17.93734 -24.61218 40998 ft 543 kts 130°
2026-04-25 18:55 17.89231 -24.54859 41001 ft 543 kts 130°
2026-04-25 18:55 17.84729 -24.48506 40998 ft 542 kts 130°
2026-04-25 18:56 17.80223 -24.42153 41000 ft 542 kts 130°
2026-04-25 18:56 17.75746 -24.35847 40996 ft 542 kts 130°
2026-04-25 18:57 17.71245 -24.29513 40997 ft 542 kts 130°
2026-04-25 18:57 17.66704 -24.23193 40994 ft 542 kts 130°
2026-04-25 18:58 17.62165 -24.16900 40990 ft 542 kts 130°
2026-04-25 18:58 17.55352 -24.07448 40990 ft 541 kts 130°
2026-04-25 18:59 17.46281 -23.94882 40988 ft 541 kts 130°
2026-04-25 19:00 17.39465 -23.85454 40986 ft 541 kts 130°
2026-04-25 19:01 17.32670 -23.76068 40987 ft 541 kts 130°
2026-04-25 19:01 17.28124 -23.69797 40985 ft 540 kts 130°
2026-04-25 19:02 17.21338 -23.60446 40984 ft 540 kts 130°
2026-04-25 19:03 17.15259 -23.52080 40985 ft 539 kts 130°
2026-04-25 19:03 17.09995 -23.44843 40982 ft 539 kts 130°
2026-04-25 19:04 17.03184 -23.35491 40982 ft 538 kts 131°
2026-04-25 19:05 16.94155 -23.23114 40973 ft 536 kts 130°
2026-04-25 19:06 16.89638 -23.16931 40961 ft 536 kts 130°
2026-04-25 19:06 16.82861 -23.07663 40946 ft 535 kts 130°
2026-04-25 19:07 16.78847 -23.01133 40943 ft 539 kts 116°
2026-04-25 19:07 16.77430 -22.97556 40945 ft 540 kts 112°
2026-04-25 19:08 16.73561 -22.86505 40943 ft 540 kts 112°
2026-04-25 19:09 16.68748 -22.73058 40946 ft 540 kts 112°
2026-04-25 19:10 16.64347 -22.60871 40958 ft 540 kts 112°
2026-04-25 19:10 16.61701 -22.53554 40953 ft 540 kts 112°
2026-04-25 19:11 16.59046 -22.46220 40955 ft 540 kts 112°
2026-04-25 19:11 16.56393 -22.38904 40950 ft 540 kts 112°
2026-04-25 19:12 16.53753 -22.31629 40954 ft 540 kts 112°
2026-04-25 19:12 16.51111 -22.24360 40956 ft 539 kts 112°
2026-04-25 19:13 16.48454 -22.17058 40959 ft 539 kts 112°
2026-04-25 19:13 16.46065 -22.10501 40959 ft 539 kts 112°
2026-04-25 19:14 16.43407 -22.03213 40954 ft 539 kts 113°
2026-04-25 19:14 16.40743 -21.95918 40954 ft 538 kts 113°
2026-04-25 19:15 16.38075 -21.88621 40955 ft 538 kts 113°
2026-04-25 19:15 16.35412 -21.81346 40948 ft 538 kts 113°
2026-04-25 19:16 16.32765 -21.74122 40956 ft 538 kts 113°
2026-04-25 19:16 16.30094 -21.66844 40950 ft 538 kts 113°
2026-04-25 19:17 16.27422 -21.59572 40952 ft 538 kts 113°
2026-04-25 19:17 16.24746 -21.52294 40947 ft 538 kts 113°
2026-04-25 19:18 16.22070 -21.45029 40945 ft 538 kts 113°
2026-04-25 19:18 16.19409 -21.37812 40950 ft 538 kts 113°
2026-04-25 19:19 16.16726 -21.30542 40941 ft 538 kts 113°
2026-04-25 19:19 16.14043 -21.23284 40946 ft 537 kts 113°
2026-04-25 19:20 16.11370 -21.16059 40948 ft 537 kts 113°
2026-04-25 19:20 16.08674 -21.08781 40948 ft 537 kts 113°
2026-04-25 19:21 16.06009 -21.01596 40944 ft 537 kts 113°
2026-04-25 19:21 16.01972 -20.90727 40940 ft 537 kts 113°
2026-04-25 19:22 15.99282 -20.83496 40935 ft 536 kts 113°
2026-04-25 19:23 15.95259 -20.72698 40928 ft 536 kts 113°
2026-04-25 19:23 15.91223 -20.61882 40931 ft 535 kts 113°
2026-04-25 19:24 15.88524 -20.54659 40931 ft 535 kts 113°
2026-04-25 19:25 15.83144 -20.40289 40934 ft 535 kts 113°
2026-04-25 19:25 15.80446 -20.33093 40930 ft 535 kts 113°
2026-04-25 19:26 15.77745 -20.25900 40932 ft 534 kts 113°
2026-04-25 19:26 15.75042 -20.18707 40923 ft 534 kts 113°
2026-04-25 19:27 15.72794 -20.12733 40924 ft 534 kts 113°
2026-04-25 19:27 15.69654 -20.04393 40920 ft 534 kts 113°
2026-04-25 19:28 15.66964 -19.97210 40918 ft 533 kts 112°
2026-04-25 19:28 15.64406 -19.90001 40933 ft 533 kts 112°
2026-04-25 19:29 15.61860 -19.82812 40933 ft 533 kts 112°
2026-04-25 19:29 15.59289 -19.75611 40911 ft 532 kts 112°
2026-04-25 19:30 15.56713 -19.68413 40911 ft 532 kts 112°
2026-04-25 19:30 15.54137 -19.61224 40908 ft 532 kts 112°
2026-04-25 19:31 15.51557 -19.54036 40906 ft 532 kts 112°
2026-04-25 19:31 15.48996 -19.46904 40926 ft 531 kts 112°
2026-04-25 19:32 15.46333 -19.39771 40925 ft 529 kts 116°
2026-04-25 19:32 15.44149 -19.35197 40907 ft 528 kts 119°
2026-04-25 19:33 15.39771 -19.26128 40901 ft 528 kts 118°
2026-04-25 19:33 15.36493 -19.19325 40899 ft 528 kts 118°
2026-04-25 19:34 15.33229 -19.12566 40899 ft 528 kts 118°
2026-04-25 19:34 15.29942 -19.05766 40916 ft 528 kts 118°
2026-04-25 19:35 15.26650 -18.98965 40921 ft 528 kts 118°
2026-04-25 19:35 15.23358 -18.92168 40914 ft 527 kts 118°
2026-04-25 19:36 15.20090 -18.85429 40905 ft 527 kts 118°
2026-04-25 19:36 15.16802 -18.78653 40906 ft 527 kts 118°
2026-04-25 19:37 15.13515 -18.71884 40906 ft 526 kts 118°
2026-04-25 19:37 15.10226 -18.65120 40900 ft 526 kts 118°
2026-04-25 19:38 15.06939 -18.58367 40903 ft 525 kts 118°
2026-04-25 19:38 15.03682 -18.51679 40895 ft 525 kts 118°
2026-04-25 19:39 15.00392 -18.44931 40893 ft 524 kts 118°
2026-04-25 19:39 14.97112 -18.38207 40650 ft 520 kts 118°
2026-04-25 19:40 14.95486 -18.34877 40047 ft 520 kts 118°
2026-04-25 19:40 14.93847 -18.31524 39235 ft 523 kts 118°
2026-04-25 19:40 14.92193 -18.28142 38169 ft 531 kts 118°
2026-04-25 19:40 14.90537 -18.24757 37227 ft 535 kts 118°
2026-04-25 19:41 14.88869 -18.21346 36656 ft 530 kts 118°
2026-04-25 19:41 14.87216 -18.17967 36110 ft 525 kts 117°
2026-04-25 19:41 14.85571 -18.14606 35549 ft 521 kts 117°
2026-04-25 19:41 14.85021 -18.13483 35357 ft 520 kts 117°
2026-04-25 19:42 14.82324 -18.07978 34468 ft 514 kts 117°
2026-04-25 19:42 14.80717 -18.04702 33951 ft 510 kts 117°
2026-04-25 19:42 14.79116 -18.01438 33394 ft 506 kts 117°
2026-04-25 19:42 14.77534 -17.98213 32880 ft 502 kts 117°
2026-04-25 19:43 14.75956 -17.94999 32342 ft 498 kts 116°
2026-04-25 19:43 14.74416 -17.91863 31836 ft 494 kts 116°
2026-04-25 19:43 14.72867 -17.88711 31317 ft 491 kts 116°
2026-04-25 19:43 14.71330 -17.85583 30827 ft 487 kts 116°
2026-04-25 19:44 14.69780 -17.82480 30321 ft 484 kts 120°
2026-04-25 19:44 14.67841 -17.79658 29791 ft 481 kts 132°
2026-04-25 19:44 14.65409 -17.77309 29202 ft 476 kts 144°
2026-04-25 19:44 14.62616 -17.75521 28632 ft 471 kts 153°
2026-04-25 19:45 14.59734 -17.73954 28077 ft 467 kts 154°
2026-04-25 19:45 14.56863 -17.72402 27524 ft 463 kts 154°
2026-04-25 19:45 14.54038 -17.70879 26989 ft 459 kts 154°
2026-04-25 19:45 14.51264 -17.69386 26469 ft 456 kts 154°
2026-04-25 19:46 14.48460 -17.67880 25950 ft 452 kts 154°
2026-04-25 19:46 14.45685 -17.66393 25438 ft 447 kts 154°
2026-04-25 19:46 14.42930 -17.64919 24947 ft 443 kts 154°
2026-04-25 19:46 14.40204 -17.63462 24458 ft 439 kts 154°
2026-04-25 19:47 14.37540 -17.61935 23955 ft 436 kts 146°
2026-04-25 19:47 14.35267 -17.59899 23492 ft 434 kts 132°
2026-04-25 19:47 14.33546 -17.57359 22929 ft 431 kts 117°
2026-04-25 19:47 14.32501 -17.54485 22367 ft 427 kts 102°
2026-04-25 19:48 14.32172 -17.51499 21827 ft 423 kts 88°
2026-04-25 19:48 14.32406 -17.48493 21286 ft 418 kts 86°
2026-04-25 19:48 14.32171 -17.45520 20758 ft 416 kts 103°
2026-04-25 19:48 14.31156 -17.42761 20218 ft 412 kts 120°
2026-04-25 19:49 14.29451 -17.40407 19725 ft 407 kts 134°
2026-04-25 19:49 14.28811 -17.39683 19557 ft 406 kts 134°
2026-04-25 19:49 14.25664 -17.36121 18732 ft 402 kts 134°
2026-04-25 19:49 14.23791 -17.33993 18246 ft 399 kts 134°
2026-04-25 19:50 14.20123 -17.29805 17145 ft 394 kts 134°
2026-04-25 19:50 14.18296 -17.27715 16596 ft 391 kts 134°
2026-04-25 19:50 14.16489 -17.25642 16058 ft 388 kts 134°
2026-04-25 19:51 14.14696 -17.23581 15525 ft 384 kts 134°
2026-04-25 19:51 14.12922 -17.21538 15013 ft 381 kts 134°
2026-04-25 19:51 14.11166 -17.19510 14500 ft 377 kts 134°
2026-04-25 19:51 14.09435 -17.17506 13994 ft 373 kts 134°
2026-04-25 19:52 14.07714 -17.15506 13475 ft 370 kts 134°
2026-04-25 19:52 14.06023 -17.13544 12924 ft 366 kts 134°
2026-04-25 19:52 14.04336 -17.11590 12387 ft 362 kts 134°
2026-04-25 19:52 14.02692 -17.09695 11833 ft 358 kts 134°
2026-04-25 19:53 14.01027 -17.07798 11317 ft 355 kts 134°
2026-04-25 19:53 13.99375 -17.05935 10795 ft 351 kts 134°
2026-04-25 19:53 13.97729 -17.04097 10282 ft 347 kts 134°
2026-04-25 19:53 13.96099 -17.02298 9946 ft 338 kts 134°
2026-04-25 19:54 13.94629 -17.00482 9835 ft 323 kts 121°
2026-04-25 19:54 13.93892 -16.98374 9833 ft 307 kts 99°
2026-04-25 19:54 13.93938 -16.96224 9829 ft 298 kts 79°
2026-04-25 19:54 13.94107 -16.95555 9826 ft 297 kts 72°
2026-04-25 19:55 13.95778 -16.92886 9812 ft 300 kts 42°
2026-04-25 19:55 13.97535 -16.91748 9659 ft 301 kts 22°
2026-04-25 19:55 13.99456 -16.91322 9434 ft 277 kts
2026-04-25 19:55 14.01205 -16.91442 10659 ft 240 kts 344°
2026-04-25 19:56 14.02753 -16.92058 11305 ft 241 kts 334°
2026-04-25 19:56 14.04318 -16.92775 11357 ft 249 kts 334°
2026-04-25 19:56 14.05921 -16.93482 11307 ft 259 kts 335°
2026-04-25 19:56 14.07687 -16.94244 11271 ft 287 kts 336°
2026-04-25 19:57 14.09559 -16.95041 11243 ft 294 kts 336°
2026-04-25 19:57 14.11477 -16.95853 11023 ft 300 kts 336°
2026-04-25 19:57 14.13423 -16.96677 10400 ft 306 kts 336°
2026-04-25 19:57 14.15410 -16.97521 9445 ft 319 kts 337°
2026-04-25 19:58 14.17497 -16.98406 8599 ft 325 kts 337°
2026-04-25 19:58 14.19532 -16.99269 8370 ft 307 kts 337°
2026-04-25 19:58 14.21444 -17.00080 8210 ft 288 kts 337°
2026-04-25 19:58 14.23238 -17.00842 8052 ft 270 kts 338°
2026-04-25 19:59 14.25023 -17.01176 7904 ft 257 kts
2026-04-25 19:59 14.26687 -17.00605 7768 ft 254 kts 35°
2026-04-25 19:59 14.27870 -16.99269 7628 ft 257 kts 64°
2026-04-25 19:59 14.28279 -16.97489 7542 ft 259 kts 92°
2026-04-25 20:00 14.27828 -16.95696 7413 ft 261 kts 113°
2026-04-25 20:00 14.27594 -16.95142 7378 ft 260 kts 110°
2026-04-25 20:00 14.27126 -16.92103 7116 ft 258 kts 108°
2026-04-25 20:00 14.26182 -16.90544 6998 ft 258 kts 133°
2026-04-25 20:01 14.23974 -16.87691 6838 ft 256 kts 114°
2026-04-25 20:01 14.23208 -16.86030 6820 ft 257 kts 114°
2026-04-25 20:01 14.22439 -16.84360 6812 ft 259 kts 114°
2026-04-25 20:02 14.21663 -16.82688 6814 ft 258 kts 117°
2026-04-25 20:02 14.20588 -16.81220 6835 ft 259 kts 141°
2026-04-25 20:02 14.18968 -16.80432 6819 ft 260 kts 171°
2026-04-25 20:02 14.17192 -16.80204 6814 ft 260 kts 174°
2026-04-25 20:03 14.15393 -16.80000 6819 ft 261 kts 174°
2026-04-25 20:03 14.13591 -16.79800 6815 ft 261 kts 174°
2026-04-25 20:03 14.11791 -16.79602 6824 ft 260 kts 174°
2026-04-25 20:03 14.09988 -16.79405 6815 ft 260 kts 174°
2026-04-25 20:04 14.08192 -16.79207 6725 ft 260 kts 174°
2026-04-25 20:04 14.06398 -16.79012 6581 ft 258 kts 174°
2026-04-25 20:04 14.04605 -16.78817 6264 ft 261 kts 174°
2026-04-25 20:04 14.02799 -16.78623 5969 ft 261 kts 174°
2026-04-25 20:05 14.00994 -16.78430 5684 ft 261 kts 174°
2026-04-25 20:05 13.99186 -16.78519 5359 ft 262 kts 198°
2026-04-25 20:05 13.97655 -16.79405 5131 ft 255 kts 227°
2026-04-25 20:05 13.96737 -16.80918 4864 ft 248 kts 258°
2026-04-25 20:06 13.96678 -16.82639 4593 ft 239 kts 288°
2026-04-25 20:06 13.97222 -16.84239 4327 ft 236 kts 294°
2026-04-25 20:06 13.97801 -16.85819 4078 ft 236 kts 294°
2026-04-25 20:06 13.98385 -16.87409 4001 ft 238 kts 294°
2026-04-25 20:07 13.98964 -16.89004 4005 ft 238 kts 294°
2026-04-25 20:07 13.99537 -16.90593 4007 ft 236 kts 294°
2026-04-25 20:07 13.99918 -16.91640 4008 ft 236 kts 294°
2026-04-25 20:07 14.00491 -16.93223 4010 ft 236 kts 294°
2026-04-25 20:08 14.01070 -16.94811 4005 ft 237 kts 294°
2026-04-25 20:08 14.01835 -16.96914 4009 ft 237 kts 294°
2026-04-25 20:08 14.02501 -16.98448 4003 ft 232 kts 310°
2026-04-25 20:08 14.03728 -16.99469 4014 ft 228 kts 340°
2026-04-25 20:09 14.05264 -16.99837 4010 ft 227 kts 350°
2026-04-25 20:09 14.06818 -17.00152 4012 ft 227 kts 349°
2026-04-25 20:09 14.07841 -17.00370 4014 ft 227 kts 349°
2026-04-25 20:09 14.09385 -17.00709 4015 ft 227 kts 348°
2026-04-25 20:10 14.10929 -17.01052 4012 ft 227 kts 349°
2026-04-25 20:10 14.12478 -17.01397 4011 ft 228 kts 349°
2026-04-25 20:10 14.14028 -17.01741 4012 ft 227 kts 348°
2026-04-25 20:10 14.15568 -17.02084 4014 ft 226 kts 348°
2026-04-25 20:11 14.17615 -17.02538 4011 ft 228 kts 348°
2026-04-25 20:11 14.18663 -17.02771 4016 ft 228 kts 348°
2026-04-25 20:11 14.20190 -17.03110 4015 ft 227 kts 348°
2026-04-25 20:11 14.22261 -17.03570 4015 ft 228 kts 348°
2026-04-25 20:12 14.23287 -17.03798 4013 ft 228 kts 348°
2026-04-25 20:12 14.24834 -17.04142 4013 ft 227 kts 348°
2026-04-25 20:12 14.26383 -17.04486 4015 ft 228 kts 348°
2026-04-25 20:12 14.27410 -17.04714 4011 ft 228 kts 348°
2026-04-25 20:13 14.29482 -17.05175 4012 ft 227 kts 348°
2026-04-25 20:13 14.31027 -17.05519 4015 ft 227 kts 348°
2026-04-25 20:13 14.32563 -17.05860 4014 ft 226 kts 348°
2026-04-25 20:13 14.34107 -17.06203 4017 ft 228 kts 348°
2026-04-25 20:14 14.35655 -17.06547 4017 ft 227 kts 348°
2026-04-25 20:14 14.37191 -17.06889 4017 ft 226 kts 348°
2026-04-25 20:14 14.38716 -17.07228 4018 ft 228 kts 348°
2026-04-25 20:14 14.40264 -17.07572 4023 ft 227 kts 348°
2026-04-25 20:15 14.41800 -17.07913 4021 ft 225 kts 348°
2026-04-25 20:15 14.43335 -17.08253 4023 ft 226 kts 348°
2026-04-25 20:15 14.44893 -17.08286 4031 ft 227 kts 14°
2026-04-25 20:15 14.46332 -17.07610 4043 ft 229 kts 31°
2026-04-25 20:16 14.47821 -17.07022 3674 ft 235 kts
2026-04-25 20:16 14.49448 -17.06957 3325 ft 238 kts 358°
2026-04-25 20:16 14.51101 -17.07017 3013 ft 238 kts
2026-04-25 20:16 14.52744 -17.07036 2713 ft 233 kts 358°
2026-04-25 20:17 14.54335 -17.07059 2433 ft 218 kts
2026-04-25 20:17 14.55743 -17.07089 2158 ft 190 kts 359°
2026-04-25 20:17 14.57016 -17.07105 1922 ft 175 kts 360°
2026-04-25 20:17 14.58212 -17.07126 1706 ft 172 kts
2026-04-25 20:18 14.59370 -17.07145 1492 ft 155 kts 360°
2026-04-25 20:18 14.60378 -17.07161 1288 ft 137 kts 359°
2026-04-25 20:18 14.61310 -17.07172 1130 ft 133 kts 360°
2026-04-25 20:18 14.62232 -17.07194 956 ft 135 kts 359°
2026-04-25 20:19 14.63162 -17.07203 795 ft 131 kts 359°
2026-04-25 20:19 14.64052 -17.07222 621 ft 128 kts 359°
2026-04-25 20:19 14.64942 -17.07234 451 ft 129 kts 358°
2026-04-25 20:19 14.65840 -17.07254 296 ft 126 kts 357°
2026-04-25 20:20 14.66571 -17.07276 280 ft 69 kts 359°
2026-04-25 20:20 14.66938 -17.07276 279 ft 37 kts
2026-04-25 20:20 14.67130 -17.07279 277 ft 17 kts 355°
2026-04-25 20:20 14.67261 -17.07287 276 ft 21 kts 358°
2026-04-25 20:21 14.67417 -17.07287 274 ft 24 kts
2026-04-25 20:21 14.67586 -17.07280 272 ft 25 kts
2026-04-25 20:21 14.67717 -17.07235 272 ft 20 kts 26°
2026-04-25 20:21 14.67834 -17.07170 271 ft 12 kts 29°
2026-04-25 20:22 14.67923 -17.07123 271 ft 17 kts 21°
2026-04-25 20:22 14.68001 -17.07105 271 ft 18 kts
2026-04-25 20:22 14.68185 -17.07101 270 ft 22 kts
2026-04-25 20:22 14.68343 -17.07100 269 ft 24 kts 360°
2026-04-25 20:23 14.68461 -17.07101 268 ft 13 kts 359°
2026-04-25 20:23 14.68519 -17.07101 268 ft 10 kts 360°
2026-04-25 20:23 14.68572 -17.07102 268 ft 8 kts 360°
2026-04-25 20:23 14.68595 -17.07102 268 ft 0 kts 360°
2026-04-25 20:24 14.68607 -17.07102 268 ft 2 kts 339°
2026-04-25 20:24 14.68617 -17.07112 268 ft 1 kts 288°
2026-04-25 20:24 14.68617 -17.07121 268 ft 1 kts 248°
2026-04-25 20:24 14.68614 -17.07126 268 ft 1 kts 224°
2026-04-25 20:25 14.68606 -17.07131 268 ft 1 kts 188°
2026-04-25 20:25 14.68569 -17.07130 268 ft 10 kts 174°
2026-04-25 20:25 14.68462 -17.07120 268 ft 20 kts 175°
2026-04-25 20:25 14.68301 -17.07116 271 ft 27 kts 179°
2026-04-25 20:26 14.68088 -17.07113 271 ft 32 kts 168°